Regional Weather Roundup
Issued by NWS Green Bay, WI

Home | Current Version | Previous Version | Graphics & Text | Print | Product List | Glossary Off
Versions: 1 2 3 4 5 6 7 8 9 10 11 12 13 14 15 16 17 18 19 20 21 22 23 24 25 26 27 28 29 30 31 32 33 34 35 36 37 38 39 40 41 42 43 44 45 46 47 48 49 50

000
ASUS43 KGRB 252000
RWRGRB

NORTH-CENTRAL AND NORTHEAST WISCONSIN REGIONAL WEATHER ROUNDUP
NATIONAL WEATHER SERVICE GREEN BAY WI
300 PM CDT THU MAY 25 2017

WIZ005-009-010>012-018-019-252100-
NORTH CENTRAL WISCONSIN

CITY           SKY/WX    TMP DP  RH WIND       PRES   REMARKS
IRONWOOD       PTSUNNY   66  47  50 NE9       29.69F
MANITOWISH WTR NOT AVBL
ARBOR VITAE    NOT AVBL
EAGLE RIVER    NOT AVBL
LAND O LAKES   NOT AVBL
RHINELANDER    MOSUNNY   72  47  40 MISG      29.69S
PHILLIPS       NOT AVBL
ANTIGO         NOT AVBL
TOMAHAWK       NOT AVBL
MERRILL        NOT AVBL
$$

WIZ013-073-252100-
NORTHEAST WISCONSIN

CITY           SKY/WX    TMP DP  RH WIND       PRES   REMARKS
IRON MOUNTAIN  MOSUNNY   72  45  37 NE6       29.67S
MARINETTE      SUNNY     66  51  58 E13       29.67F
$$

WIZ017-030-035>037-045-252100-
CENTRAL WISCONSIN

CITY           SKY/WX    TMP DP  RH WIND       PRES   REMARKS
MEDFORD        NOT AVBL
WAUSAU         PTSUNNY   71  49  45 VRB5      29.65F
MOSINEE        MOSUNNY   70  48  46 E3        29.68F
MARSHFIELD     MOSUNNY   71  51  49 VRB6      29.67S
WISC RAPIDS    MOSUNNY   71  50  47 E8        29.68S
STEVENS POINT  NOT AVBL
WAUPACA        NOT AVBL
SHAWANO        PTSUNNY   71  52  50 E9        29.67S
CLINTONVILLE   MOSUNNY   72  50  46 NE6       29.67S
WAUTOMA        MOSUNNY   71  51  49 NE8       29.68R
$$

WIZ038-039-048-051-252100-
FOX VALLEY

CITY           SKY/WX    TMP DP  RH WIND       PRES   REMARKS
NWS GREEN BAY  SUNNY     67  55  65 NE18G26   29.68R
APPLETON       PTSUNNY   68  46  45 E12G17    29.66S
OSHKOSH        SUNNY     68  53  58 N10       29.67S
FOND DU LAC    PTSUNNY   67  51  56 NE9       29.67S
$$

WIZ022-050-052-252100-
EAST CENTRAL WISCONSIN

CITY           SKY/WX    TMP DP  RH WIND       PRES   REMARKS
EPHRAIM        NOT AVBL
WASHINGTON ISL NOT AVBL
STURGEON BAY   CLOUDY    63  51  65 N12       29.67S
MANITOWOC      NOT AVBL
SHEBOYGAN      SUNNY     64  56  75 NE16      29.66R
$$

LMZ563-521-522-541>543-252100-
LAKESHORE

STATION/POSITION TIME  TEMP    WIND        PRES    VSBY  WAVE
                       AIR SEA DIR/SP/G                  HT/PER
                 (UTC) (F)     (DEG/KT/KT) (MB)    (MI)  (FT/S)
SHEBOYGAN LKSHOR 1900   50      30/ 19/ 21 1004.2R
KEWAUNEE LKSHORE 1930   54      20/  7/ 11 1004.5R
NORTHPORT PIER   1940   56      80/  8/ 13 1004.7F
N MID LAKE BUOY  1850   45 40   10/  8/  8 1005.7F         1/ 3
CHAMBERS ISLAND  1940   59      20/  6/  9 1004.4F
MENOMINEE LKSHOR 1930           10/  3/  5 1004.2R
$$




USA.gov is the U.S. government's official web portal to all federal, state and local government web resources and services.